Time,TemperatureF,DewpointF,PressureIn,WindDirection,WindDirectionDegrees,WindSpeedMPH,WindSpeedGustMPH,Humidity,HourlyPrecipIn,Conditions,Clouds,dailyrainin,SoftwareType,DateUTC
2013-06-05 00:00:00,71.7,70.2,29.98,ESE,123,0.0,0.0,95,0.00,,-RA,0.00,VWS V14.01,2013-06-05 04:00:00,
2013-06-05 00:01:00,71.7,70.2,29.98,ESE,122,0.0,0.0,95,0.00,,CLR,0.00,VWS V14.01,2013-06-05 04:01:00,
2013-06-05 00:06:00,71.9,70.4,29.98,ESE,122,0.0,0.0,95,0.00,,FEW012,0.00,VWS V14.01,2013-06-05 04:06:00,
2013-06-05 00:11:00,72.0,70.5,29.98,ESE,123,0.0,0.0,95,0.00,,FEW012,0.00,VWS V14.01,2013-06-05 04:11:00,
2013-06-05 00:15:00,72.1,70.6,29.98,ESE,123,0.0,0.0,95,0.00,,FEW012,0.00,VWS V14.01,2013-06-05 04:15:00,
2013-06-05 00:16:00,72.1,70.6,29.98,ESE,122,0.0,0.0,95,0.00,,FEW012,0.00,VWS V14.01,2013-06-05 04:16:00,
2013-06-05 00:21:00,72.2,70.7,29.98,ESE,123,0.0,0.0,95,0.00,,FEW012,0.00,VWS V14.01,2013-06-05 04:21:00,
2013-06-05 00:26:00,72.5,71.0,29.98,ESE,123,0.0,0.0,95,0.00,,FEW012,0.00,VWS V14.01,2013-06-05 04:26:00,
2013-06-05 00:30:00,72.7,71.2,29.98,ESE,123,0.0,0.0,95,0.00,,-RA,0.00,VWS V14.01,2013-06-05 04:30:00,
2013-06-05 00:31:00,72.8,71.3,29.98,ESE,122,0.0,0.0,95,0.00,,FEW006,0.00,VWS V14.01,2013-06-05 04:31:00,
2013-06-05 00:36:00,73.0,71.8,29.99,ESE,122,0.0,1.0,96,0.00,,FEW006,0.00,VWS V14.01,2013-06-05 04:36:00,
2013-06-05 00:41:00,73.0,71.8,29.99,ESE,122,0.0,1.0,96,0.00,,FEW006,0.00,VWS V14.01,2013-06-05 04:41:00,
2013-06-05 00:45:00,73.1,71.9,29.98,ESE,123,0.0,1.0,96,0.00,,-RA,0.00,VWS V14.01,2013-06-05 04:45:00,
2013-06-05 00:46:00,73.1,71.9,29.98,ESE,123,0.0,0.0,96,0.00,,FEW006,0.00,VWS V14.01,2013-06-05 04:46:00,
2013-06-05 00:51:00,73.3,72.1,29.98,ESE,123,0.0,0.0,96,0.00,,FEW006,0.00,VWS V14.01,2013-06-05 04:51:00,
2013-06-05 01:00:00,74.1,72.9,29.98,ESE,122,0.0,0.0,96,0.00,,FEW006,0.00,VWS V14.01,2013-06-05 05:00:00,
2013-06-05 01:06:00,74.2,73.0,29.98,ESE,122,0.0,0.0,96,0.00,,OVC004,0.00,VWS V14.01,2013-06-05 05:06:00,
2013-06-05 01:11:00,74.3,73.1,29.98,ESE,123,0.0,0.0,96,0.00,,OVC004,0.00,VWS V14.01,2013-06-05 05:11:00,
2013-06-05 01:15:00,74.4,73.2,29.98,ESE,122,0.0,0.0,96,0.00,,-RA,0.00,VWS V14.01,2013-06-05 05:15:00,
2013-06-05 01:16:00,74.4,73.2,29.98,ESE,122,0.0,0.0,96,0.00,,OVC004,0.00,VWS V14.01,2013-06-05 05:16:00,
2013-06-05 01:21:00,74.5,73.3,29.98,ESE,123,0.0,0.0,96,0.00,,OVC004,0.00,VWS V14.01,2013-06-05 05:21:00,
2013-06-05 01:26:00,74.5,73.3,29.98,ESE,123,0.0,0.0,96,0.00,,OVC004,0.00,VWS V14.01,2013-06-05 05:26:00,
2013-06-05 01:30:00,74.5,73.3,29.98,ESE,123,0.0,0.0,96,0.00,,-RA,0.00,VWS V14.01,2013-06-05 05:30:00,
2013-06-05 01:31:00,74.5,73.3,29.98,ESE,123,0.0,0.0,96,0.00,,OVC004,0.00,VWS V14.01,2013-06-05 05:31:00,
2013-06-05 01:36:00,74.6,73.4,29.98,ESE,122,0.0,0.0,96,0.00,,OVC004,0.00,VWS V14.01,2013-06-05 05:36:00,
2013-06-05 01:41:00,74.6,73.4,29.98,ESE,123,0.0,0.0,96,0.00,,OVC004,0.00,VWS V14.01,2013-06-05 05:41:00,
2013-06-05 01:45:00,74.6,73.4,29.97,ESE,123,0.0,0.0,96,0.00,,-RA,0.00,VWS V14.01,2013-06-05 05:45:00,
2013-06-05 01:47:00,74.6,73.4,29.97,ESE,123,0.0,0.0,96,0.00,,OVC004,0.00,VWS V14.01,2013-06-05 05:47:00,
2013-06-05 01:52:00,74.6,73.4,29.97,ESE,122,0.0,0.0,96,0.00,,OVC004,0.00,VWS V14.01,2013-06-05 05:52:00,
2013-06-05 01:57:00,74.6,73.4,29.97,ESE,123,0.0,0.0,96,0.00,,OVC004,0.00,VWS V14.01,2013-06-05 05:57:00,
2013-06-05 02:00:00,74.5,73.3,29.97,ESE,123,0.0,0.0,96,0.00,,-RA,0.00,VWS V14.01,2013-06-05 06:00:00,
2013-06-05 02:02:00,74.6,73.4,29.97,ESE,123,0.0,0.0,96,0.00,,,0.00,VWS V14.01,2013-06-05 06:02:00,
2013-06-05 02:07:00,74.5,73.3,29.96,ESE,122,0.0,0.0,96,0.00,,,0.00,VWS V14.01,2013-06-05 06:07:00,
2013-06-05 02:12:00,74.6,73.4,29.97,ESE,123,0.0,0.0,96,0.00,,,0.00,VWS V14.01,2013-06-05 06:12:00,
2013-06-05 02:15:00,74.6,73.4,29.97,East,94,0.0,2.0,96,0.00,,-RA,0.00,VWS V14.01,2013-06-05 06:15:00,
2013-06-05 02:17:00,74.6,73.4,29.97,East,94,0.0,0.0,96,0.00,,,0.00,VWS V14.01,2013-06-05 06:17:00,
2013-06-05 02:22:00,74.5,73.3,29.97,East,92,0.0,0.0,96,0.00,,,0.00,VWS V14.01,2013-06-05 06:22:00,
2013-06-05 02:27:00,74.5,73.3,29.98,East,92,1.0,1.0,96,0.00,,,0.00,VWS V14.01,2013-06-05 06:27:00,
2013-06-05 02:30:00,74.4,73.2,29.98,East,94,0.0,1.0,96,0.00,,-RA,0.00,VWS V14.01,2013-06-05 06:30:00,
2013-06-05 02:32:00,74.4,73.2,29.97,East,94,0.0,0.0,96,0.00,,,0.00,VWS V14.01,2013-06-05 06:32:00,
2013-06-05 02:37:00,74.4,73.2,29.97,East,94,0.0,0.0,96,0.00,,,0.00,VWS V14.01,2013-06-05 06:37:00,
2013-06-05 02:42:00,74.3,73.1,29.97,East,94,0.0,0.0,96,0.00,,,0.00,VWS V14.01,2013-06-05 06:42:00,
2013-06-05 02:45:00,74.3,73.1,29.97,East,94,0.0,0.0,96,0.00,,-RA,0.00,VWS V14.01,2013-06-05 06:45:00,
2013-06-05 02:47:00,74.3,73.1,29.98,East,94,0.0,0.0,96,0.00,,,0.00,VWS V14.01,2013-06-05 06:47:00,
2013-06-05 02:52:00,74.2,73.0,29.97,East,94,0.0,0.0,96,0.00,,,0.00,VWS V14.01,2013-06-05 06:52:00,
2013-06-05 03:00:00,74.2,73.0,29.97,East,94,0.0,0.0,96,0.00,,,0.00,VWS V14.01,2013-06-05 07:00:00,
2013-06-05 03:07:00,74.2,73.0,29.97,East,94,0.0,0.0,96,0.00,,,0.00,VWS V14.01,2013-06-05 07:07:00,
2013-06-05 03:15:00,74.2,73.0,29.97,East,94,0.0,0.0,96,0.00,,,0.00,VWS V14.01,2013-06-05 07:15:00,
2013-06-05 03:22:00,74.2,73.0,29.97,East,94,0.0,0.0,96,0.00,,,0.00,VWS V14.01,2013-06-05 07:22:00,
2013-06-05 03:27:00,74.2,73.0,29.97,East,94,0.0,0.0,96,0.00,,,0.00,VWS V14.01,2013-06-05 07:27:00,
2013-06-05 03:30:00,74.2,73.0,29.97,East,94,0.0,0.0,96,0.00,,-RA,0.00,VWS V14.01,2013-06-05 07:30:00,
2013-06-05 03:32:00,74.2,73.0,29.97,East,94,0.0,0.0,96,0.00,,,0.00,VWS V14.01,2013-06-05 07:32:00,
2013-06-05 03:37:00,74.2,73.0,29.97,East,94,0.0,0.0,96,0.00,,,0.00,VWS V14.01,2013-06-05 07:37:00,
2013-06-05 03:43:00,74.2,73.0,29.97,East,94,0.0,0.0,96,0.00,,,0.00,VWS V14.01,2013-06-05 07:43:00,
2013-06-05 03:45:00,74.2,73.0,29.96,East,94,0.0,0.0,96,0.00,,-RA,0.00,VWS V14.01,2013-06-05 07:45:00,
2013-06-05 03:48:00,74.2,73.0,29.96,East,94,0.0,0.0,96,0.00,,,0.00,VWS V14.01,2013-06-05 07:48:00,
2013-06-05 03:53:00,74.2,73.0,29.96,East,94,0.0,0.0,96,0.00,,,0.00,VWS V14.01,2013-06-05 07:53:00,
2013-06-05 03:58:00,74.2,73.0,29.96,East,94,0.0,0.0,96,0.00,,,0.00,VWS V14.01,2013-06-05 07:58:00,
2013-06-05 04:00:00,74.2,73.0,29.96,East,94,0.0,0.0,96,0.00,,-RA,0.00,VWS V14.01,2013-06-05 08:00:00,
2013-06-05 04:03:00,74.2,73.0,29.96,East,94,0.0,0.0,96,0.00,,,0.00,VWS V14.01,2013-06-05 08:03:00,
2013-06-05 04:08:00,74.2,73.0,29.96,East,94,0.0,0.0,96,0.00,,,0.00,VWS V14.01,2013-06-05 08:08:00,
2013-06-05 04:13:00,74.2,73.0,29.96,East,94,0.0,0.0,96,0.00,,,0.00,VWS V14.01,2013-06-05 08:13:00,
2013-06-05 04:15:00,74.2,73.0,29.96,East,94,0.0,0.0,96,0.00,,-RA,0.00,VWS V14.01,2013-06-05 08:15:00,
2013-06-05 04:18:00,74.2,73.0,29.96,East,94,0.0,0.0,96,0.00,,,0.00,VWS V14.01,2013-06-05 08:18:00,
2013-06-05 04:23:00,74.1,72.9,29.96,East,94,0.0,0.0,96,0.00,,,0.00,VWS V14.01,2013-06-05 08:23:00,
2013-06-05 04:28:00,74.0,72.8,29.96,East,94,0.0,0.0,96,0.00,,,0.00,VWS V14.01,2013-06-05 08:28:00,
2013-06-05 04:30:00,74.0,72.8,29.96,East,94,0.0,0.0,96,0.00,,-RA,0.00,VWS V14.01,2013-06-05 08:30:00,
2013-06-05 04:33:00,74.0,72.8,29.97,East,94,0.0,0.0,96,0.00,,,0.00,VWS V14.01,2013-06-05 08:33:00,
2013-06-05 04:38:00,73.9,72.7,29.97,East,94,0.0,0.0,96,0.00,,,0.00,VWS V14.01,2013-06-05 08:38:00,
2013-06-05 04:43:00,73.9,72.7,29.97,East,94,0.0,0.0,96,0.00,,,0.00,VWS V14.01,2013-06-05 08:43:00,
2013-06-05 04:45:00,73.9,72.7,29.97,East,94,0.0,0.0,96,0.00,,-RA,0.00,VWS V14.01,2013-06-05 08:45:00,
2013-06-05 04:48:00,73.9,72.7,29.97,East,94,0.0,0.0,96,0.00,,,0.00,VWS V14.01,2013-06-05 08:48:00,
2013-06-05 04:53:00,73.9,72.7,29.97,East,94,0.0,0.0,96,0.00,,,0.00,VWS V14.01,2013-06-05 08:53:00,
2013-06-05 04:58:00,73.8,72.6,29.97,East,94,0.0,0.0,96,0.00,,,0.00,VWS V14.01,2013-06-05 08:58:00,
2013-06-05 05:00:00,73.8,72.6,29.97,East,94,0.0,0.0,96,0.00,,-RA,0.00,VWS V14.01,2013-06-05 09:00:00,
2013-06-05 05:03:00,73.8,72.6,29.97,East,94,0.0,0.0,96,0.00,,,0.00,VWS V14.01,2013-06-05 09:03:00,
2013-06-05 05:08:00,73.7,72.5,29.98,East,94,0.0,0.0,96,0.00,,,0.00,VWS V14.01,2013-06-05 09:08:00,
2013-06-05 05:13:00,73.7,72.5,29.97,East,94,0.0,0.0,96,0.00,,,0.00,VWS V14.01,2013-06-05 09:13:00,
2013-06-05 05:15:00,73.7,72.5,29.97,East,94,0.0,0.0,96,0.00,,-RA,0.00,VWS V14.01,2013-06-05 09:15:00,
2013-06-05 05:18:00,73.7,72.5,29.97,East,94,0.0,0.0,96,0.00,,,0.00,VWS V14.01,2013-06-05 09:18:00,
2013-06-05 05:23:00,73.7,72.5,29.98,East,94,0.0,0.0,96,0.00,,,0.00,VWS V14.01,2013-06-05 09:23:00,
2013-06-05 05:28:00,73.6,72.4,29.98,East,94,0.0,0.0,96,0.00,,,0.00,VWS V14.01,2013-06-05 09:28:00,
2013-06-05 05:30:00,73.6,72.4,29.98,East,94,0.0,0.0,96,0.00,,-RA,0.00,VWS V14.01,2013-06-05 09:30:00,
2013-06-05 05:33:00,73.6,72.4,29.98,East,94,0.0,0.0,96,0.00,,,0.00,VWS V14.01,2013-06-05 09:33:00,
2013-06-05 05:38:00,73.6,72.4,29.98,East,94,0.0,0.0,96,0.00,,,0.00,VWS V14.01,2013-06-05 09:38:00,
2013-06-05 05:43:00,73.6,72.4,29.98,East,94,0.0,0.0,96,0.00,,,0.00,VWS V14.01,2013-06-05 09:43:00,
2013-06-05 05:45:00,73.6,72.4,29.98,East,94,0.0,0.0,96,0.00,,-RA,0.00,VWS V14.01,2013-06-05 09:45:00,
2013-06-05 05:48:00,73.6,72.4,29.98,East,94,0.0,0.0,96,0.00,,,0.00,VWS V14.01,2013-06-05 09:48:00,
2013-06-05 05:53:00,73.6,72.4,29.99,East,94,0.0,0.0,96,0.00,,,0.00,VWS V14.01,2013-06-05 09:53:00,
2013-06-05 05:58:00,73.6,72.7,29.98,East,94,0.0,0.0,97,0.00,,,0.00,VWS V14.01,2013-06-05 09:58:00,
2013-06-05 06:00:00,73.7,72.8,29.99,East,94,0.0,0.0,97,0.00,,-RA,0.00,VWS V14.01,2013-06-05 10:00:00,
2013-06-05 06:03:00,73.7,72.8,29.99,East,94,0.0,0.0,97,0.00,,OVC012,0.00,VWS V14.01,2013-06-05 10:03:00,
2013-06-05 06:08:00,73.7,72.8,29.99,East,94,0.0,0.0,97,0.00,,OVC012,0.00,VWS V14.01,2013-06-05 10:08:00,
2013-06-05 06:13:00,73.7,72.8,29.99,East,94,0.0,0.0,97,0.00,,OVC012,0.00,VWS V14.01,2013-06-05 10:13:00,
2013-06-05 06:15:00,73.7,72.8,29.99,East,94,0.0,0.0,97,0.00,,-RA,0.00,VWS V14.01,2013-06-05 10:15:00,
2013-06-05 06:18:00,73.7,72.8,29.99,East,94,0.0,0.0,97,0.00,,OVC012,0.00,VWS V14.01,2013-06-05 10:18:00,
2013-06-05 06:24:00,73.7,72.8,29.99,East,94,0.0,0.0,97,0.00,,OVC012,0.00,VWS V14.01,2013-06-05 10:24:00,
2013-06-05 06:29:00,73.7,72.8,29.99,East,94,0.0,0.0,97,0.00,,OVC012,0.00,VWS V14.01,2013-06-05 10:29:00,
2013-06-05 06:30:00,73.7,72.8,29.99,East,94,0.0,0.0,97,0.00,,-RA,0.00,VWS V14.01,2013-06-05 10:30:00,
2013-06-05 06:34:00,73.7,72.8,29.99,East,94,0.0,0.0,97,0.00,,,0.00,VWS V14.01,2013-06-05 10:34:00,
2013-06-05 06:39:00,73.7,72.8,29.99,East,94,0.0,0.0,97,0.00,,,0.00,VWS V14.01,2013-06-05 10:39:00,
2013-06-05 06:44:00,73.7,72.8,29.99,ESE,102,0.0,1.0,97,0.00,,,0.00,VWS V14.01,2013-06-05 10:44:00,
2013-06-05 06:45:00,73.7,72.8,29.99,ESE,102,0.0,1.0,97,0.00,,-RA,0.00,VWS V14.01,2013-06-05 10:45:00,
2013-06-05 06:49:00,73.7,72.8,29.99,ESE,102,0.0,0.0,97,0.00,,,0.00,VWS V14.01,2013-06-05 10:49:00,
2013-06-05 06:54:00,73.8,72.9,29.99,ESE,102,0.0,0.0,97,0.00,,,0.00,VWS V14.01,2013-06-05 10:54:00,
2013-06-05 06:59:00,73.8,72.9,29.99,East,100,0.0,4.0,97,0.00,,,0.00,VWS V14.01,2013-06-05 10:59:00,
2013-06-05 07:00:00,73.8,72.9,29.99,East,100,0.0,4.0,97,0.00,,-RA,0.00,VWS V14.01,2013-06-05 11:00:00,
2013-06-05 07:04:00,73.8,72.9,29.99,ESE,103,0.0,2.0,97,0.00,,,0.00,VWS V14.01,2013-06-05 11:04:00,
2013-06-05 07:09:00,73.8,72.9,29.99,ESE,109,0.0,2.0,97,0.00,,,0.00,VWS V14.01,2013-06-05 11:09:00,
2013-06-05 07:14:00,73.8,72.9,29.99,SSW,198,0.0,2.0,97,0.00,,,0.00,VWS V14.01,2013-06-05 11:14:00,
2013-06-05 07:15:00,73.8,72.9,29.99,SSW,198,0.0,2.0,97,0.00,,-RA,0.00,VWS V14.01,2013-06-05 11:15:00,
2013-06-05 07:19:00,73.9,73.0,29.99,SSW,198,0.0,0.0,97,0.00,,,0.00,VWS V14.01,2013-06-05 11:19:00,
2013-06-05 07:24:00,73.9,73.0,30.00,SSW,198,0.0,0.0,97,0.00,,,0.00,VWS V14.01,2013-06-05 11:24:00,
2013-06-05 07:29:00,73.9,73.0,29.99,SSW,198,0.0,0.0,97,0.00,,,0.00,VWS V14.01,2013-06-05 11:29:00,
2013-06-05 07:30:00,73.9,73.0,29.99,SSW,198,0.0,0.0,97,0.00,,-RA,0.00,VWS V14.01,2013-06-05 11:30:00,
2013-06-05 07:34:00,74.0,73.1,30.00,SSW,198,0.0,0.0,97,0.00,,,0.00,VWS V14.01,2013-06-05 11:34:00,
2013-06-05 07:39:00,74.1,72.9,29.99,SSW,198,0.0,1.0,96,0.00,,,0.00,VWS V14.01,2013-06-05 11:39:00,
2013-06-05 07:44:00,74.1,72.9,29.99,SSW,204,0.0,2.0,96,0.00,,,0.00,VWS V14.01,2013-06-05 11:44:00,
2013-06-05 07:45:00,74.1,72.9,29.99,East,84,0.0,2.0,96,0.00,,-RA,0.00,VWS V14.01,2013-06-05 11:45:00,
2013-06-05 07:49:00,74.1,72.9,29.99,ENE,75,0.0,1.0,96,0.00,,,0.00,VWS V14.01,2013-06-05 11:49:00,
2013-06-05 07:54:00,74.2,73.0,29.99,ENE,75,0.0,1.0,96,0.00,,,0.00,VWS V14.01,2013-06-05 11:54:00,
2013-06-05 07:59:00,74.2,73.0,30.00,ENE,75,0.0,1.0,96,0.00,,,0.00,VWS V14.01,2013-06-05 11:59:00,
2013-06-05 08:00:00,74.2,73.0,30.00,ENE,75,0.0,1.0,96,0.00,,-RA,0.00,VWS V14.01,2013-06-05 12:00:00,
2013-06-05 08:04:00,74.3,73.1,30.00,ENE,75,0.0,1.0,96,0.00,,,0.00,VWS V14.01,2013-06-05 12:04:00,
2013-06-05 08:09:00,74.3,73.1,30.00,ENE,74,0.0,2.0,96,0.00,,,0.00,VWS V14.01,2013-06-05 12:09:00,
2013-06-05 08:14:00,74.4,73.2,30.00,ENE,74,0.0,2.0,96,0.00,,,0.00,VWS V14.01,2013-06-05 12:14:00,
2013-06-05 08:15:00,74.4,73.2,30.00,ENE,74,0.0,2.0,96,0.00,,-RA,0.00,VWS V14.01,2013-06-05 12:15:00,
2013-06-05 08:19:00,74.4,73.2,30.00,ENE,74,0.0,0.0,96,0.00,,,0.00,VWS V14.01,2013-06-05 12:19:00,
2013-06-05 08:24:00,74.4,73.2,30.00,ENE,74,0.0,0.0,96,0.00,,,0.00,VWS V14.01,2013-06-05 12:24:00,
2013-06-05 08:29:00,74.5,73.3,30.00,ENE,74,0.0,0.0,96,0.00,,,0.00,VWS V14.01,2013-06-05 12:29:00,
2013-06-05 08:30:00,74.5,73.3,30.00,ENE,74,0.0,0.0,96,0.00,,-RA,0.00,VWS V14.01,2013-06-05 12:30:00,
2013-06-05 08:34:00,74.5,73.3,30.00,ENE,74,0.0,1.0,96,0.00,,,0.00,VWS V14.01,2013-06-05 12:34:00,
2013-06-05 08:39:00,74.5,73.3,30.00,ENE,74,0.0,1.0,96,0.00,,,0.00,VWS V14.01,2013-06-05 12:39:00,
2013-06-05 08:44:00,74.6,73.4,30.00,ENE,74,0.0,1.0,96,0.00,,,0.00,VWS V14.01,2013-06-05 12:44:00,
2013-06-05 08:45:00,74.6,73.1,30.00,ENE,74,0.0,1.0,95,0.00,,-RA,0.00,VWS V14.01,2013-06-05 12:45:00,
2013-06-05 08:49:00,74.7,73.2,30.00,ENE,74,0.0,0.0,95,0.00,,,0.00,VWS V14.01,2013-06-05 12:49:00,
2013-06-05 08:54:00,74.7,73.2,30.01,ENE,74,0.0,0.0,95,0.00,,,0.00,VWS V14.01,2013-06-05 12:54:00,
2013-06-05 08:59:00,74.9,73.4,30.00,ENE,74,0.0,0.0,95,0.00,,,0.00,VWS V14.01,2013-06-05 12:59:00,
2013-06-05 09:00:00,74.9,73.4,30.00,ENE,74,0.0,0.0,95,0.00,,-RA,0.00,VWS V14.01,2013-06-05 13:00:00,
2013-06-05 09:04:00,75.1,73.6,30.01,ENE,74,0.0,0.0,95,0.00,,OVC007,0.00,VWS V14.01,2013-06-05 13:04:00,
2013-06-05 09:09:00,75.3,73.8,30.01,ENE,74,0.0,1.0,95,0.00,,OVC007,0.00,VWS V14.01,2013-06-05 13:09:00,
2013-06-05 09:14:00,75.5,74.0,30.00,ENE,74,0.0,1.0,95,0.00,,OVC007,0.00,VWS V14.01,2013-06-05 13:14:00,
2013-06-05 09:15:00,75.5,73.7,30.00,ENE,74,0.0,1.0,94,0.00,,-RA,0.00,VWS V14.01,2013-06-05 13:15:00,
2013-06-05 09:19:00,75.7,73.8,30.01,ENE,74,0.0,1.0,94,0.00,,OVC007,0.00,VWS V14.01,2013-06-05 13:19:00,
2013-06-05 09:25:00,75.9,74.1,30.01,ENE,74,0.0,1.0,94,0.00,,OVC007,0.00,VWS V14.01,2013-06-05 13:25:00,
2013-06-05 09:30:00,76.0,73.8,30.00,ENE,74,0.0,2.0,93,0.00,,OVC007,0.00,VWS V14.01,2013-06-05 13:30:00,
2013-06-05 09:35:00,76.2,74.0,30.00,ENE,74,1.0,1.0,93,0.00,,OVC007,0.00,VWS V14.01,2013-06-05 13:35:00,
2013-06-05 09:40:00,76.4,74.2,30.00,ENE,74,0.0,2.0,93,0.00,,OVC007,0.00,VWS V14.01,2013-06-05 13:40:00,
2013-06-05 09:45:00,76.6,74.1,30.00,NNE,25,0.0,2.0,92,0.00,,OVC007,0.00,VWS V14.01,2013-06-05 13:45:00,
2013-06-05 09:50:00,76.7,74.2,30.00,NNE,25,0.0,1.0,92,0.00,,OVC007,0.00,VWS V14.01,2013-06-05 13:50:00,
2013-06-05 09:55:00,76.8,74.0,30.00,NNE,26,0.0,2.0,91,0.00,,OVC007,0.00,VWS V14.01,2013-06-05 13:55:00,
2013-06-05 10:00:00,76.8,74.0,30.00,NNE,26,0.0,2.0,91,0.00,,OVC007,0.00,VWS V14.01,2013-06-05 14:00:00,
2013-06-05 10:05:00,76.8,74.0,30.00,NNE,26,0.0,2.0,91,0.00,,OVC043,0.00,VWS V14.01,2013-06-05 14:05:00,
2013-06-05 10:10:00,76.9,74.1,30.00,NNE,25,0.0,2.0,91,0.00,,OVC043,0.00,VWS V14.01,2013-06-05 14:10:00,
2013-06-05 10:15:00,77.3,74.5,29.99,NNE,26,0.0,2.0,91,0.00,,OVC043,0.00,VWS V14.01,2013-06-05 14:15:00,
2013-06-05 10:20:00,77.6,74.8,29.99,NNE,25,0.0,1.0,91,0.00,,OVC043,0.00,VWS V14.01,2013-06-05 14:20:00,
2013-06-05 10:25:00,77.8,74.6,29.99,NNE,25,0.0,1.0,90,0.00,,OVC043,0.00,VWS V14.01,2013-06-05 14:25:00,
2013-06-05 10:30:00,78.0,74.5,29.99,NNE,26,0.0,3.0,89,0.00,,OVC043,0.00,VWS V14.01,2013-06-05 14:30:00,
2013-06-05 10:35:00,77.9,74.4,29.99,NNE,26,0.0,1.0,89,0.00,,OVC048,0.00,VWS V14.01,2013-06-05 14:35:00,
2013-06-05 10:40:00,77.9,74.4,30.00,South,187,0.0,1.0,89,0.00,,OVC048,0.00,VWS V14.01,2013-06-05 14:40:00,
2013-06-05 10:45:00,77.8,74.3,30.00,South,187,0.0,1.0,89,0.00,,OVC048,0.00,VWS V14.01,2013-06-05 14:45:00,
2013-06-05 10:50:00,77.6,74.4,30.00,SSE,168,0.0,1.0,90,0.07,,OVC048,0.07,VWS V14.01,2013-06-05 14:50:00,
2013-06-05 10:55:00,77.3,74.5,30.00,SSE,167,0.0,1.0,91,0.10,,OVC048,0.10,VWS V14.01,2013-06-05 14:55:00,
2013-06-05 11:00:00,77.1,74.6,30.00,SSE,167,0.0,1.0,92,0.11,,OVC048,0.11,VWS V14.01,2013-06-05 15:00:00,
2013-06-05 11:05:00,77.1,74.6,30.00,SSE,167,0.0,0.0,92,0.11,,OVC055,0.11,VWS V14.01,2013-06-05 15:05:00,
2013-06-05 11:10:00,77.0,74.8,30.00,SSE,167,0.0,0.0,93,0.12,,OVC055,0.12,VWS V14.01,2013-06-05 15:10:00,
2013-06-05 11:15:00,77.1,75.2,30.00,SSE,167,0.0,0.0,94,0.12,,OVC055,0.12,VWS V14.01,2013-06-05 15:15:00,
2013-06-05 11:20:00,77.4,75.5,30.00,SSE,167,0.0,0.0,94,0.12,,OVC055,0.12,VWS V14.01,2013-06-05 15:20:00,
2013-06-05 11:25:00,77.4,75.5,30.00,SSE,167,0.0,0.0,94,0.12,,OVC055,0.12,VWS V14.01,2013-06-05 15:25:00,
2013-06-05 11:30:00,77.3,75.4,29.99,SSE,167,0.0,0.0,94,0.12,,OVC055,0.12,VWS V14.01,2013-06-05 15:30:00,
2013-06-05 11:35:00,77.2,75.3,29.99,SSE,167,0.0,0.0,94,0.12,,-RA,0.12,VWS V14.01,2013-06-05 15:35:00,
2013-06-05 11:40:00,77.6,76.1,29.99,SSE,167,0.0,1.0,95,0.12,,-RA,0.12,VWS V14.01,2013-06-05 15:40:00,
2013-06-05 11:45:00,78.1,76.6,29.99,SW,228,0.0,0.0,95,0.12,,-RA,0.12,VWS V14.01,2013-06-05 15:45:00,
2013-06-05 11:50:00,78.3,76.4,29.99,SSW,198,0.0,1.0,94,0.12,,-RA,0.12,VWS V14.01,2013-06-05 15:50:00,
2013-06-05 11:55:00,78.7,76.8,29.99,SSW,198,0.0,1.0,94,0.12,,-RA,0.12,VWS V14.01,2013-06-05 15:55:00,
2013-06-05 12:00:00,78.7,76.8,29.99,SSW,198,0.0,0.0,94,0.01,,-RA,0.12,VWS V14.01,2013-06-05 16:00:00,
2013-06-05 12:05:00,78.7,76.5,30.00,SSW,198,0.0,0.0,93,0.01,,BKN035,0.12,VWS V14.01,2013-06-05 16:05:00,
2013-06-05 12:10:00,78.5,76.0,30.00,SSW,198,0.0,0.0,92,0.01,,BKN035,0.12,VWS V14.01,2013-06-05 16:10:00,
2013-06-05 12:15:00,77.9,75.1,29.99,SSW,198,0.0,0.0,91,0.00,,BKN035,0.12,VWS V14.01,2013-06-05 16:15:00,
2013-06-05 12:20:00,77.5,74.7,29.99,SSW,198,0.0,1.0,91,0.00,,BKN035,0.12,VWS V14.01,2013-06-05 16:20:00,
2013-06-05 12:26:00,77.3,74.8,29.99,SSW,198,0.0,1.0,92,0.00,,BKN035,0.12,VWS V14.01,2013-06-05 16:26:00,
2013-06-05 12:30:00,77.3,74.8,29.99,SSW,198,0.0,1.0,92,0.00,,-RA,0.12,VWS V14.01,2013-06-05 16:30:00,
2013-06-05 12:31:00,77.3,74.8,29.99,SSW,198,0.0,0.0,92,0.00,,BKN035,0.12,VWS V14.01,2013-06-05 16:31:00,
2013-06-05 12:36:00,77.2,74.7,29.99,SSW,198,0.0,0.0,92,0.00,,SCT031,0.12,VWS V14.01,2013-06-05 16:36:00,
2013-06-05 12:41:00,77.1,74.6,29.99,SSW,198,0.0,1.0,92,0.00,,SCT031,0.12,VWS V14.01,2013-06-05 16:41:00,
2013-06-05 12:45:00,77.2,74.7,29.98,SSW,198,0.0,1.0,92,0.00,,-RA,0.12,VWS V14.01,2013-06-05 16:45:00,
2013-06-05 12:46:00,77.2,74.7,29.98,SSW,197,0.0,0.0,92,0.00,,SCT031,0.12,VWS V14.01,2013-06-05 16:46:00,
2013-06-05 12:51:00,77.3,74.8,29.98,ESE,117,0.0,4.0,92,0.00,,SCT031,0.12,VWS V14.01,2013-06-05 16:51:00,
2013-06-05 12:56:00,77.3,74.5,29.98,ESE,117,0.0,4.0,91,0.00,,SCT031,0.12,VWS V14.01,2013-06-05 16:56:00,
2013-06-05 13:00:00,77.6,75.1,29.97,NE,45,0.0,4.0,92,0.00,,-RA,0.12,VWS V14.01,2013-06-05 17:00:00,
2013-06-05 13:01:00,77.6,75.1,29.97,ENE,57,0.0,1.0,92,0.00,,FEW020,0.12,VWS V14.01,2013-06-05 17:01:00,
2013-06-05 13:06:00,77.8,75.0,29.97,ENE,58,0.0,1.0,91,0.00,,FEW020,0.12,VWS V14.01,2013-06-05 17:06:00,
2013-06-05 13:11:00,78.1,75.3,29.97,ENE,58,0.0,1.0,91,0.00,,FEW020,0.12,VWS V14.01,2013-06-05 17:11:00,
2013-06-05 13:15:00,78.8,76.3,29.97,ENE,57,0.0,1.0,92,0.00,,-RA,0.12,VWS V14.01,2013-06-05 17:15:00,
2013-06-05 13:26:00,80.3,75.7,29.97,ENE,65,0.0,3.0,86,0.00,,FEW020,0.12,VWS V14.01,2013-06-05 17:26:00,
2013-06-05 13:30:00,80.5,76.3,29.97,East,80,2.0,3.0,87,0.00,,-RA,0.12,VWS V14.01,2013-06-05 17:30:00,
2013-06-05 13:31:00,80.4,75.5,29.97,East,94,0.0,2.0,85,0.00,,FEW020,0.12,VWS V14.01,2013-06-05 17:31:00,
2013-06-05 13:36:00,80.6,76.4,29.97,East,94,0.0,2.0,87,0.00,,FEW020,0.12,VWS V14.01,2013-06-05 17:36:00,
2013-06-05 13:41:00,81.0,76.4,29.97,East,97,0.0,2.0,86,0.00,,FEW020,0.12,VWS V14.01,2013-06-05 17:41:00,
2013-06-05 13:45:00,80.9,75.6,29.96,East,97,0.0,5.0,84,0.00,,-RA,0.12,VWS V14.01,2013-06-05 17:45:00,
2013-06-05 13:46:00,81.0,76.1,29.96,East,97,0.0,1.0,85,0.00,,FEW020,0.12,VWS V14.01,2013-06-05 17:46:00,
2013-06-05 13:52:00,81.1,76.2,29.96,East,98,0.0,5.0,85,0.00,,FEW020,0.12,VWS V14.01,2013-06-05 17:52:00,
2013-06-05 13:57:00,81.1,75.8,29.96,ESE,104,0.0,5.0,84,0.00,,FEW020,0.12,VWS V14.01,2013-06-05 17:57:00,
2013-06-05 14:00:00,81.1,75.4,29.96,ESE,117,1.0,6.0,83,0.00,,-RA,0.12,VWS V14.01,2013-06-05 18:00:00,
2013-06-05 14:02:00,81.0,75.3,29.96,ESE,117,0.0,4.0,83,0.00,,BKN032,0.12,VWS V14.01,2013-06-05 18:02:00,
2013-06-05 14:07:00,80.7,75.8,29.95,ESE,119,0.0,4.0,85,0.00,,BKN032,0.12,VWS V14.01,2013-06-05 18:07:00,
2013-06-05 14:12:00,80.2,74.9,29.95,ESE,117,0.0,5.0,84,0.00,,BKN032,0.12,VWS V14.01,2013-06-05 18:12:00,
2013-06-05 14:15:00,80.0,75.1,29.95,ESE,117,1.0,5.0,85,0.00,,-RA,0.12,VWS V14.01,2013-06-05 18:15:00,
2013-06-05 14:17:00,79.8,74.9,29.95,ESE,117,0.0,2.0,85,0.00,,BKN032,0.12,VWS V14.01,2013-06-05 18:17:00,
2013-06-05 14:22:00,79.4,74.5,29.95,ESE,117,0.0,2.0,85,0.00,,BKN032,0.12,VWS V14.01,2013-06-05 18:22:00,
2013-06-05 14:27:00,79.0,74.5,29.95,ESE,117,0.0,3.0,86,0.00,,BKN032,0.12,VWS V14.01,2013-06-05 18:27:00,
2013-06-05 14:30:00,78.8,74.3,29.94,ESE,117,0.0,3.0,86,0.00,,-RA,0.12,VWS V14.01,2013-06-05 18:30:00,
2013-06-05 14:32:00,78.7,74.2,29.94,ESE,117,0.0,2.0,86,0.00,,-RA,0.12,VWS V14.01,2013-06-05 18:32:00,
2013-06-05 14:37:00,78.6,74.4,29.95,ESE,117,0.0,2.0,87,0.00,,-RA,0.12,VWS V14.01,2013-06-05 18:37:00,
2013-06-05 14:42:00,78.4,74.2,29.94,ESE,117,0.0,2.0,87,0.00,,-RA,0.12,VWS V14.01,2013-06-05 18:42:00,
2013-06-05 14:45:00,78.2,74.0,29.94,ESE,117,0.0,2.0,87,0.00,,-RA,0.12,VWS V14.01,2013-06-05 18:45:00,
2013-06-05 14:47:00,78.2,74.0,29.94,ESE,117,0.0,1.0,87,0.00,,-RA,0.12,VWS V14.01,2013-06-05 18:47:00,
2013-06-05 14:52:00,78.1,74.3,29.94,ESE,117,0.0,1.0,88,0.00,,-RA,0.12,VWS V14.01,2013-06-05 18:52:00,
2013-06-05 14:57:00,78.0,74.2,29.95,ESE,106,0.0,3.0,88,0.00,,-RA,0.12,VWS V14.01,2013-06-05 18:57:00,
2013-06-05 15:00:00,77.9,74.1,29.95,ESE,106,0.0,3.0,88,0.00,,-RA,0.12,VWS V14.01,2013-06-05 19:00:00,
2013-06-05 15:02:00,77.9,74.1,29.96,ESE,106,1.0,1.0,88,0.00,,OVC110,0.12,VWS V14.01,2013-06-05 19:02:00,
2013-06-05 15:07:00,77.8,74.0,29.96,ESE,106,0.0,2.0,88,0.00,,OVC110,0.12,VWS V14.01,2013-06-05 19:07:00,
2013-06-05 15:12:00,77.7,73.9,29.97,ESE,106,0.0,2.0,88,0.00,,OVC110,0.12,VWS V14.01,2013-06-05 19:12:00,
2013-06-05 15:15:00,77.6,73.8,29.96,East,86,0.0,4.0,88,0.00,,-RA,0.12,VWS V14.01,2013-06-05 19:15:00,
2013-06-05 15:17:00,77.6,74.1,29.96,East,86,0.0,1.0,89,0.00,,OVC110,0.12,VWS V14.01,2013-06-05 19:17:00,
2013-06-05 15:22:00,77.8,74.3,29.96,East,86,0.0,1.0,89,0.00,,OVC110,0.12,VWS V14.01,2013-06-05 19:22:00,
2013-06-05 15:27:00,77.8,74.3,29.95,East,86,0.0,1.0,89,0.00,,OVC110,0.12,VWS V14.01,2013-06-05 19:27:00,
2013-06-05 15:30:00,77.8,74.3,29.96,ESE,121,0.0,1.0,89,0.00,,-RA,0.12,VWS V14.01,2013-06-05 19:30:00,
2013-06-05 15:32:00,77.9,74.4,29.95,ESE,121,0.0,1.0,89,0.00,,-RA,0.12,VWS V14.01,2013-06-05 19:32:00,
2013-06-05 15:37:00,77.8,74.0,29.95,ESE,121,0.0,1.0,88,0.00,,-RA,0.12,VWS V14.01,2013-06-05 19:37:00,
2013-06-05 15:42:00,77.8,74.0,29.96,ESE,121,0.0,1.0,88,0.00,,-RA,0.12,VWS V14.01,2013-06-05 19:42:00,
2013-06-05 15:45:00,77.8,74.0,29.96,ESE,121,2.0,3.0,88,0.00,,-RA,0.12,VWS V14.01,2013-06-05 19:45:00,
2013-06-05 15:47:00,77.8,74.0,29.96,ESE,121,0.0,2.0,88,0.00,,-RA,0.12,VWS V14.01,2013-06-05 19:47:00,
2013-06-05 15:52:00,77.7,73.5,29.95,ESE,121,0.0,2.0,87,0.00,,-RA,0.12,VWS V14.01,2013-06-05 19:52:00,
2013-06-05 15:57:00,77.6,73.4,29.95,East,89,1.0,5.0,87,0.00,,-RA,0.12,VWS V14.01,2013-06-05 19:57:00,
2013-06-05 16:00:00,77.5,73.3,29.95,East,98,0.0,5.0,87,0.00,,-RA,0.12,VWS V14.01,2013-06-05 20:00:00,
2013-06-05 16:02:00,77.5,73.3,29.95,East,98,0.0,2.0,87,0.00,,SCT110,0.12,VWS V14.01,2013-06-05 20:02:00,
2013-06-05 16:08:00,77.3,73.1,29.95,East,98,0.0,2.0,87,0.00,,SCT110,0.12,VWS V14.01,2013-06-05 20:08:00,
2013-06-05 16:13:00,77.1,72.9,29.95,ENE,76,0.0,4.0,87,0.00,,SCT110,0.12,VWS V14.01,2013-06-05 20:13:00,
2013-06-05 16:15:00,77.1,73.3,29.94,ENE,65,1.0,4.0,88,0.00,,-RA,0.12,VWS V14.01,2013-06-05 20:15:00,
2013-06-05 16:18:00,77.0,72.8,29.94,ENE,71,0.0,2.0,87,0.00,,SCT110,0.12,VWS V14.01,2013-06-05 20:18:00,
2013-06-05 16:23:00,76.9,73.1,29.94,ENE,71,0.0,2.0,88,0.00,,SCT110,0.12,VWS V14.01,2013-06-05 20:23:00,
2013-06-05 16:28:00,76.9,73.1,29.94,ENE,71,0.0,2.0,88,0.00,,SCT110,0.12,VWS V14.01,2013-06-05 20:28:00,
2013-06-05 16:30:00,76.9,73.1,29.94,ENE,71,0.0,2.0,88,0.00,,-RA,0.12,VWS V14.01,2013-06-05 20:30:00,
2013-06-05 16:33:00,76.9,73.1,29.94,ENE,71,0.0,0.0,88,0.00,,SCT110,0.12,VWS V14.01,2013-06-05 20:33:00,
2013-06-05 16:38:00,76.9,73.1,29.94,ENE,74,0.0,1.0,88,0.00,,SCT110,0.12,VWS V14.01,2013-06-05 20:38:00,
2013-06-05 16:43:00,76.9,73.4,29.94,ENE,74,0.0,1.0,89,0.00,,SCT110,0.12,VWS V14.01,2013-06-05 20:43:00,
2013-06-05 16:45:00,76.9,73.4,29.94,ENE,74,0.0,1.0,89,0.00,,-RA,0.12,VWS V14.01,2013-06-05 20:45:00,
2013-06-05 16:48:00,76.9,73.4,29.94,ENE,74,0.0,0.0,89,0.00,,SCT110,0.12,VWS V14.01,2013-06-05 20:48:00,
2013-06-05 16:53:00,77.0,73.5,29.94,ENE,74,0.0,2.0,89,0.00,,SCT110,0.12,VWS V14.01,2013-06-05 20:53:00,
2013-06-05 16:58:00,76.9,73.4,29.94,ENE,74,0.0,2.0,89,0.00,,SCT110,0.12,VWS V14.01,2013-06-05 20:58:00,
2013-06-05 17:00:00,76.9,73.1,29.94,ENE,75,0.0,2.0,88,0.00,,-RA,0.12,VWS V14.01,2013-06-05 21:00:00,
2013-06-05 17:03:00,76.8,73.0,29.94,ENE,75,0.0,1.0,88,0.00,,-RA,0.12,VWS V14.01,2013-06-05 21:03:00,
2013-06-05 17:08:00,76.9,73.4,29.94,ENE,75,0.0,1.0,89,0.00,,-RA,0.12,VWS V14.01,2013-06-05 21:08:00,
2013-06-05 17:13:00,76.9,73.4,29.94,ENE,74,0.0,1.0,89,0.00,,-RA,0.12,VWS V14.01,2013-06-05 21:13:00,
2013-06-05 17:15:00,76.9,73.4,29.94,ENE,75,0.0,1.0,89,0.00,,-RA,0.12,VWS V14.01,2013-06-05 21:15:00,
2013-06-05 17:18:00,76.9,73.4,29.94,ENE,74,0.0,0.0,89,0.00,,-RA,0.12,VWS V14.01,2013-06-05 21:18:00,
2013-06-05 17:23:00,76.8,73.3,29.94,ENE,74,0.0,0.0,89,0.00,,-RA,0.12,VWS V14.01,2013-06-05 21:23:00,
2013-06-05 17:28:00,76.7,73.2,29.94,ENE,74,0.0,0.0,89,0.00,,-RA,0.12,VWS V14.01,2013-06-05 21:28:00,
2013-06-05 17:30:00,76.7,73.2,29.94,ENE,74,0.0,0.0,89,0.00,,-RA,0.12,VWS V14.01,2013-06-05 21:30:00,
2013-06-05 17:33:00,76.7,73.2,29.93,ENE,74,0.0,0.0,89,0.00,,-RA,0.12,VWS V14.01,2013-06-05 21:33:00,
2013-06-05 17:44:00,76.6,73.4,29.93,ENE,74,0.0,1.0,90,0.00,,-RA,0.12,VWS V14.01,2013-06-05 21:44:00,
2013-06-05 17:45:00,76.6,73.4,29.93,ENE,74,0.0,1.0,90,0.00,,CLR,0.12,VWS V14.01,2013-06-05 21:45:00,
2013-06-05 17:49:00,76.6,73.8,29.93,ENE,74,0.0,0.0,91,0.00,,-RA,0.12,VWS V14.01,2013-06-05 21:49:00,
2013-06-05 17:54:00,76.5,73.7,29.93,ENE,74,0.0,1.0,91,0.00,,-RA,0.12,VWS V14.01,2013-06-05 21:54:00,
2013-06-05 17:59:00,76.5,73.7,29.93,North,349,0.0,1.0,91,0.00,,-RA,0.12,VWS V14.01,2013-06-05 21:59:00,
2013-06-05 18:00:00,76.5,73.7,29.93,North,349,0.0,1.0,91,0.00,,CLR,0.12,VWS V14.01,2013-06-05 22:00:00,
2013-06-05 18:04:00,76.5,74.0,29.93,North,349,0.0,0.0,92,0.00,,-RA,0.12,VWS V14.01,2013-06-05 22:04:00,
2013-06-05 18:09:00,76.4,73.9,29.93,North,349,0.0,0.0,92,0.00,,-RA,0.12,VWS V14.01,2013-06-05 22:09:00,
2013-06-05 18:14:00,76.4,73.9,29.93,North,349,0.0,0.0,92,0.00,,-RA,0.12,VWS V14.01,2013-06-05 22:14:00,
2013-06-05 18:15:00,76.4,73.9,29.93,North,349,0.0,0.0,92,0.00,,CLR,0.12,VWS V14.01,2013-06-05 22:15:00,
2013-06-05 18:19:00,76.2,73.7,29.93,North,349,0.0,0.0,92,0.00,,-RA,0.12,VWS V14.01,2013-06-05 22:19:00,
2013-06-05 18:24:00,76.0,73.5,29.93,North,355,0.0,0.0,92,0.01,,-RA,0.13,VWS V14.01,2013-06-05 22:24:00,
2013-06-05 18:29:00,75.7,73.2,29.93,North,355,0.0,0.0,92,0.01,,-RA,0.13,VWS V14.01,2013-06-05 22:29:00,
2013-06-05 18:30:00,75.7,73.2,29.93,North,355,0.0,0.0,92,0.01,,CLR,0.13,VWS V14.01,2013-06-05 22:30:00,
2013-06-05 18:34:00,75.5,73.3,29.93,North,355,0.0,0.0,93,0.01,,RA,0.13,VWS V14.01,2013-06-05 22:34:00,
2013-06-05 18:39:00,75.3,73.1,29.93,North,355,0.0,0.0,93,0.01,,RA,0.13,VWS V14.01,2013-06-05 22:39:00,
2013-06-05 18:44:00,75.1,72.9,29.93,North,355,0.0,0.0,93,0.01,,RA,0.13,VWS V14.01,2013-06-05 22:44:00,
2013-06-05 18:45:00,75.0,72.8,29.93,North,355,0.0,0.0,93,0.02,,CLR,0.14,VWS V14.01,2013-06-05 22:45:00,
2013-06-05 18:49:00,74.9,73.1,29.93,North,355,0.0,0.0,94,0.02,,RA,0.14,VWS V14.01,2013-06-05 22:49:00,
2013-06-05 18:54:00,74.7,72.9,29.93,North,355,0.0,0.0,94,0.03,,RA,0.15,VWS V14.01,2013-06-05 22:54:00,
2013-06-05 19:00:00,74.3,72.5,29.93,ENE,67,0.0,2.0,94,0.03,,RA,0.15,VWS V14.01,2013-06-05 23:00:00,
2013-06-05 19:05:00,74.0,72.2,29.93,ENE,67,0.0,0.0,94,0.04,,RA,0.16,VWS V14.01,2013-06-05 23:05:00,
2013-06-05 19:10:00,73.7,71.9,29.93,ENE,67,0.0,0.0,94,0.04,,RA,0.16,VWS V14.01,2013-06-05 23:10:00,
2013-06-05 19:15:00,73.5,71.7,29.92,ENE,67,0.0,0.0,94,0.04,,RA,0.16,VWS V14.01,2013-06-05 23:15:00,
2013-06-05 19:20:00,73.3,71.8,29.93,ENE,67,0.0,0.0,95,0.05,,RA,0.17,VWS V14.01,2013-06-05 23:20:00,
2013-06-05 19:25:00,73.1,71.6,29.93,ENE,67,0.0,1.0,95,0.06,,RA,0.18,VWS V14.01,2013-06-05 23:25:00,
2013-06-05 19:30:00,72.9,71.4,29.93,ENE,67,0.0,1.0,95,0.07,,RA,0.19,VWS V14.01,2013-06-05 23:30:00,
2013-06-05 19:35:00,72.8,71.3,29.93,ENE,67,0.0,0.0,95,0.07,,RA,0.20,VWS V14.01,2013-06-05 23:35:00,
2013-06-05 19:40:00,72.6,71.1,29.92,ENE,67,0.0,1.0,95,0.07,,RA,0.20,VWS V14.01,2013-06-05 23:40:00,
2013-06-05 19:45:00,72.4,71.2,29.92,ENE,67,0.0,1.0,96,0.07,,RA,0.20,VWS V14.01,2013-06-05 23:45:00,
2013-06-05 19:50:00,72.4,71.2,29.91,ENE,67,0.0,1.0,96,0.06,,RA,0.20,VWS V14.01,2013-06-05 23:50:00,
2013-06-05 19:55:00,72.4,71.2,29.91,ENE,67,0.0,1.0,96,0.06,,RA,0.20,VWS V14.01,2013-06-05 23:55:00,
2013-06-05 20:00:00,72.4,71.2,29.92,ENE,67,0.0,1.0,96,0.06,,RA,0.20,VWS V14.01,2013-06-06 00:00:00,
2013-06-05 20:05:00,72.5,71.3,29.91,ENE,67,0.0,0.0,96,0.06,,-RA,0.21,VWS V14.01,2013-06-06 00:05:00,
2013-06-05 20:10:00,72.5,71.3,29.91,ENE,67,0.0,1.0,96,0.06,,-RA,0.21,VWS V14.01,2013-06-06 00:10:00,
2013-06-05 20:15:00,72.6,71.7,29.92,ENE,67,0.0,1.0,97,0.06,,-RA,0.21,VWS V14.01,2013-06-06 00:15:00,
2013-06-05 20:20:00,72.6,71.4,29.92,ENE,67,0.0,1.0,96,0.06,,-RA,0.22,VWS V14.01,2013-06-06 00:20:00,
2013-06-05 20:25:00,72.7,71.8,29.92,ENE,67,0.0,1.0,97,0.06,,-RA,0.22,VWS V14.01,2013-06-06 00:25:00,
2013-06-05 20:30:00,72.8,71.9,29.91,ENE,67,0.0,1.0,97,0.06,,-RA,0.22,VWS V14.01,2013-06-06 00:30:00,
2013-06-05 20:35:00,73.0,72.1,29.91,ENE,67,0.0,1.0,97,0.04,,-RA,0.23,VWS V14.01,2013-06-06 00:35:00,
2013-06-05 20:40:00,73.1,72.2,29.91,ENE,67,0.0,1.0,97,0.04,,-RA,0.23,VWS V14.01,2013-06-06 00:40:00,
2013-06-05 20:45:00,73.2,72.3,29.91,ENE,67,0.0,1.0,97,0.04,,-RA,0.23,VWS V14.01,2013-06-06 00:45:00,
2013-06-05 20:50:00,73.3,72.4,29.91,ENE,67,0.0,0.0,97,0.04,,-RA,0.24,VWS V14.01,2013-06-06 00:50:00,
2013-06-05 20:55:00,73.4,72.5,29.91,ENE,67,0.0,1.0,97,0.04,,-RA,0.24,VWS V14.01,2013-06-06 00:55:00,
2013-06-05 21:00:00,73.3,72.4,29.91,ENE,67,0.0,1.0,97,0.04,,-RA,0.24,VWS V14.01,2013-06-06 01:00:00,
2013-06-05 21:05:00,73.2,72.3,29.91,ENE,67,0.0,0.0,97,0.04,,-RA,0.24,VWS V14.01,2013-06-06 01:05:00,
2013-06-05 21:10:00,73.0,72.1,29.91,ENE,67,0.0,1.0,97,0.04,,-RA,0.24,VWS V14.01,2013-06-06 01:10:00,
2013-06-05 21:15:00,72.9,72.0,29.91,ENE,67,0.0,0.0,97,0.03,,-RA,0.24,VWS V14.01,2013-06-06 01:15:00,
2013-06-05 21:20:00,72.8,71.9,29.91,ENE,67,0.0,0.0,97,0.03,,-RA,0.24,VWS V14.01,2013-06-06 01:20:00,
2013-06-05 21:25:00,72.6,71.7,29.91,ENE,67,0.0,0.0,97,0.03,,-RA,0.24,VWS V14.01,2013-06-06 01:25:00,
2013-06-05 21:30:00,72.5,71.6,29.92,ENE,67,0.0,0.0,97,0.02,,-RA,0.24,VWS V14.01,2013-06-06 01:30:00,
2013-06-05 21:35:00,72.3,71.4,29.92,ENE,67,0.0,0.0,97,0.02,,-RA,0.24,VWS V14.01,2013-06-06 01:35:00,
2013-06-05 21:40:00,72.2,71.3,29.92,ENE,67,0.0,0.0,97,0.02,,-RA,0.24,VWS V14.01,2013-06-06 01:40:00,
2013-06-05 21:45:00,72.1,71.2,29.92,ENE,67,0.0,0.0,97,0.02,,CLR,0.24,VWS V14.01,2013-06-06 01:45:00,
2013-06-05 21:46:00,72.1,71.2,29.92,ENE,67,0.0,0.0,97,0.01,,-RA,0.24,VWS V14.01,2013-06-06 01:46:00,
2013-06-05 21:51:00,72.0,71.1,29.92,ENE,67,0.0,0.0,97,0.01,,-RA,0.24,VWS V14.01,2013-06-06 01:51:00,
2013-06-05 21:56:00,72.0,71.1,29.93,ENE,67,0.0,0.0,97,0.01,,-RA,0.24,VWS V14.01,2013-06-06 01:56:00,
2013-06-05 22:00:00,72.0,71.1,29.93,ENE,67,0.0,0.0,97,0.01,,CLR,0.24,VWS V14.01,2013-06-06 02:00:00,
2013-06-05 22:01:00,72.0,71.1,29.93,ENE,67,0.0,0.0,97,0.00,,-RA,0.24,VWS V14.01,2013-06-06 02:01:00,
2013-06-05 22:06:00,72.1,71.2,29.93,ENE,67,0.0,0.0,97,0.00,,-RA,0.24,VWS V14.01,2013-06-06 02:06:00,
2013-06-05 22:11:00,72.2,71.3,29.93,ENE,67,0.0,0.0,97,0.00,,-RA,0.24,VWS V14.01,2013-06-06 02:11:00,
2013-06-05 22:15:00,72.2,71.3,29.94,ENE,67,0.0,0.0,97,0.00,,CLR,0.24,VWS V14.01,2013-06-06 02:15:00,
2013-06-05 22:16:00,72.2,71.3,29.94,ENE,67,0.0,0.0,97,0.00,,-RA,0.24,VWS V14.01,2013-06-06 02:16:00,
2013-06-05 22:21:00,72.3,71.4,29.94,ENE,67,0.0,0.0,97,0.00,,-RA,0.24,VWS V14.01,2013-06-06 02:21:00,
2013-06-05 22:26:00,72.4,71.5,29.94,ENE,67,0.0,0.0,97,0.00,,-RA,0.24,VWS V14.01,2013-06-06 02:26:00,
2013-06-05 22:30:00,72.4,71.5,29.94,ENE,67,0.0,0.0,97,0.00,,CLR,0.24,VWS V14.01,2013-06-06 02:30:00,
2013-06-05 22:31:00,72.4,71.5,29.94,ENE,67,0.0,0.0,97,0.00,,-RA,0.24,VWS V14.01,2013-06-06 02:31:00,
2013-06-05 22:36:00,72.4,71.5,29.94,ENE,67,0.0,0.0,97,0.00,,-RA,0.24,VWS V14.01,2013-06-06 02:36:00,
2013-06-05 22:41:00,72.4,71.5,29.94,ENE,67,0.0,0.0,97,0.00,,-RA,0.24,VWS V14.01,2013-06-06 02:41:00,
2013-06-05 22:45:00,72.5,71.6,29.94,ENE,67,0.0,0.0,97,0.00,,CLR,0.24,VWS V14.01,2013-06-06 02:45:00,
2013-06-05 22:46:00,72.5,71.6,29.94,ENE,67,0.0,0.0,97,0.00,,-RA,0.24,VWS V14.01,2013-06-06 02:46:00,
2013-06-05 23:00:00,72.6,72.0,29.93,ENE,67,0.0,0.0,98,0.00,,-RA,0.24,VWS V14.01,2013-06-06 03:00:00,
2013-06-05 23:08:00,72.6,72.0,29.93,ENE,67,0.0,0.0,98,0.00,,RA,0.24,VWS V14.01,2013-06-06 03:08:00,
2013-06-05 23:13:00,72.5,71.9,29.93,ENE,67,0.0,0.0,98,0.00,,RA,0.24,VWS V14.01,2013-06-06 03:13:00,
2013-06-05 23:15:00,72.5,71.9,29.93,ENE,67,0.0,0.0,98,0.00,,CLR,0.24,VWS V14.01,2013-06-06 03:15:00,
2013-06-05 23:18:00,72.4,71.5,29.93,ENE,67,0.0,0.0,97,0.00,,RA,0.24,VWS V14.01,2013-06-06 03:18:00,
2013-06-05 23:23:00,72.3,71.4,29.93,ENE,67,0.0,0.0,97,0.00,,RA,0.24,VWS V14.01,2013-06-06 03:23:00,
2013-06-05 23:28:00,72.2,71.3,29.93,ENE,67,0.0,0.0,97,0.00,,RA,0.24,VWS V14.01,2013-06-06 03:28:00,
2013-06-05 23:30:00,72.1,71.2,29.93,ENE,67,0.0,0.0,97,0.00,,CLR,0.24,VWS V14.01,2013-06-06 03:30:00,
2013-06-05 23:33:00,72.1,71.2,29.93,ENE,67,0.0,0.0,97,0.00,,-RA,0.24,VWS V14.01,2013-06-06 03:33:00,
2013-06-05 23:38:00,72.0,71.1,29.93,ENE,67,0.0,0.0,97,0.00,,-RA,0.24,VWS V14.01,2013-06-06 03:38:00,
2013-06-05 23:43:00,71.9,71.0,29.93,ENE,67,0.0,0.0,97,0.00,,-RA,0.24,VWS V14.01,2013-06-06 03:43:00,
2013-06-05 23:45:00,71.9,71.0,29.93,ENE,67,0.0,0.0,97,0.00,,CLR,0.24,VWS V14.01,2013-06-06 03:45:00,
2013-06-05 23:48:00,71.8,70.9,29.93,ENE,67,0.0,0.0,97,0.00,,-RA,0.24,VWS V14.01,2013-06-06 03:48:00,
2013-06-05 23:53:00,71.7,70.8,29.93,ENE,67,0.0,0.0,97,0.01,,-RA,0.25,VWS V14.01,2013-06-06 03:53:00,
2013-06-05 23:58:00,71.5,70.6,29.93,ENE,67,0.0,0.0,97,0.01,,-RA,0.25,VWS V14.01,2013-06-06 03:58:00,